Time,TemperatureF,DewpointF,PressureIn,WindDirection,WindDirectionDegrees,WindSpeedMPH,WindSpeedGustMPH,Humidity,HourlyPrecipIn,Conditions,Clouds,dailyrainin,SoftwareType,DateUTC
2013-07-26 00:03:00,63.5,61.1,30.05,NNE,28,6.0,7.0,92,0.00,,,0.00,Wunderground v.1.15,2013-07-26 05:03:00,
2013-07-26 00:09:00,63.4,61.0,30.05,NNE,28,7.0,7.0,92,0.00,,,0.00,Wunderground v.1.15,2013-07-26 05:09:00,
2013-07-26 00:15:00,63.3,60.9,30.05,NNE,28,6.0,7.0,92,0.00,,,0.00,Wunderground v.1.15,2013-07-26 05:15:00,
2013-07-26 00:20:00,63.2,60.8,30.05,NNE,28,5.0,6.0,92,0.00,,,0.00,Wunderground v.1.15,2013-07-26 05:20:00,
2013-07-26 00:26:00,63.1,60.7,30.05,NNE,28,6.0,6.0,92,0.00,,,0.00,Wunderground v.1.15,2013-07-26 05:26:00,
2013-07-26 00:31:00,63.1,60.7,30.05,NNE,28,5.0,5.0,92,0.00,,,0.00,Wunderground v.1.15,2013-07-26 05:31:00,
2013-07-26 00:37:00,63.0,60.6,30.05,NNE,26,5.0,6.0,92,0.00,,,0.00,Wunderground v.1.15,2013-07-26 05:37:00,
2013-07-26 00:42:00,62.9,60.5,30.05,NNE,26,6.0,6.0,92,0.00,,,0.00,Wunderground v.1.15,2013-07-26 05:42:00,
2013-07-26 00:48:00,62.8,60.4,30.05,NNE,28,5.0,6.0,92,0.00,,,0.00,Wunderground v.1.15,2013-07-26 05:48:00,
2013-07-26 00:54:00,62.7,60.3,30.05,NNE,28,6.0,6.0,92,0.00,,,0.00,Wunderground v.1.15,2013-07-26 05:54:00,
2013-07-26 00:59:00,62.6,60.2,30.05,NNE,28,5.0,6.0,92,0.00,,,0.00,Wunderground v.1.15,2013-07-26 05:59:00,
2013-07-26 01:04:00,62.5,60.4,30.05,NNE,28,5.0,5.0,93,0.00,,,0.00,Wunderground v.1.15,2013-07-26 06:04:00,
2013-07-26 01:10:00,62.5,60.4,30.05,NNE,29,5.0,5.0,93,0.00,,,0.00,Wunderground v.1.15,2013-07-26 06:10:00,
2013-07-26 01:16:00,62.4,60.3,30.05,NNE,28,4.0,5.0,93,0.00,,,0.00,Wunderground v.1.15,2013-07-26 06:16:00,
2013-07-26 01:22:00,62.3,59.9,30.05,NNE,30,5.0,5.0,92,0.00,,,0.00,Wunderground v.1.15,2013-07-26 06:22:00,
2013-07-26 01:28:00,62.2,59.8,30.05,NNE,28,5.0,6.0,92,0.00,,,0.00,Wunderground v.1.15,2013-07-26 06:28:00,
2013-07-26 01:33:00,62.1,60.1,30.05,NNE,32,6.0,6.0,93,0.00,,,0.00,Wunderground v.1.15,2013-07-26 06:33:00,
2013-07-26 01:39:00,62.0,60.0,30.05,NNE,31,6.0,6.0,93,0.00,,,0.00,Wunderground v.1.15,2013-07-26 06:39:00,
2013-07-26 01:45:00,62.0,60.0,30.04,NE,38,6.0,7.0,93,0.00,,,0.00,Wunderground v.1.15,2013-07-26 06:45:00,
2013-07-26 01:52:00,61.9,59.9,30.04,NE,39,6.0,7.0,93,0.00,,,0.00,Wunderground v.1.15,2013-07-26 06:52:00,
2013-07-26 01:58:00,61.8,59.8,30.04,NE,39,6.0,7.0,93,0.00,,,0.00,Wunderground v.1.15,2013-07-26 06:58:00,
2013-07-26 02:03:00,61.7,59.7,30.04,NE,40,7.0,7.0,93,0.00,,,0.00,Wunderground v.1.15,2013-07-26 07:03:00,
2013-07-26 02:08:00,61.7,59.7,30.03,NE,43,9.0,9.0,93,0.00,,,0.00,Wunderground v.1.15,2013-07-26 07:08:00,
2013-07-26 02:13:00,61.6,59.6,30.03,NE,42,6.0,9.0,93,0.00,,,0.00,Wunderground v.1.15,2013-07-26 07:13:00,
2013-07-26 02:18:00,61.6,59.9,30.04,NE,43,6.0,9.0,94,0.00,,,0.00,Wunderground v.1.15,2013-07-26 07:18:00,
2013-07-26 02:23:00,61.6,59.9,30.04,NE,40,4.0,6.0,94,0.00,,,0.00,Wunderground v.1.15,2013-07-26 07:23:00,
2013-07-26 02:28:00,61.5,59.8,30.04,NE,37,4.0,6.0,94,0.00,,,0.00,Wunderground v.1.15,2013-07-26 07:28:00,
2013-07-26 02:33:00,61.5,59.8,30.04,NE,36,4.0,5.0,94,0.00,,,0.00,Wunderground v.1.15,2013-07-26 07:33:00,
2013-07-26 02:38:00,61.4,59.4,30.04,NNE,28,5.0,5.0,93,0.00,,,0.00,Wunderground v.1.15,2013-07-26 07:38:00,
2013-07-26 02:43:00,61.3,59.6,30.03,NNE,31,6.0,6.0,94,0.00,,,0.00,Wunderground v.1.15,2013-07-26 07:43:00,
2013-07-26 02:48:00,61.3,59.3,30.02,NNE,32,5.0,6.0,93,0.00,,,0.00,Wunderground v.1.15,2013-07-26 07:48:00,
2013-07-26 02:53:00,61.2,59.2,30.02,NE,41,6.0,7.0,93,0.00,,,0.00,Wunderground v.1.15,2013-07-26 07:53:00,
2013-07-26 02:58:00,61.1,59.4,30.02,NE,46,6.0,7.0,94,0.00,,,0.00,Wunderground v.1.15,2013-07-26 07:58:00,
2013-07-26 03:03:00,61.1,59.4,30.01,NE,55,8.0,9.0,94,0.00,,,0.00,Wunderground v.1.15,2013-07-26 08:03:00,
2013-07-26 03:08:00,61.0,59.3,30.01,ENE,67,4.0,9.0,94,0.00,,,0.00,Wunderground v.1.15,2013-07-26 08:08:00,
2013-07-26 03:13:00,60.9,59.2,30.02,ENE,69,3.0,6.0,94,0.00,,,0.00,Wunderground v.1.15,2013-07-26 08:13:00,
2013-07-26 03:18:00,60.9,59.2,30.02,ENE,68,4.0,6.0,94,0.00,,,0.00,Wunderground v.1.15,2013-07-26 08:18:00,
2013-07-26 03:23:00,60.9,59.2,30.02,ENE,68,4.0,4.0,94,0.00,,,0.00,Wunderground v.1.15,2013-07-26 08:23:00,
2013-07-26 03:28:00,60.9,59.2,30.03,ENE,68,3.0,5.0,94,0.00,,,0.00,Wunderground v.1.15,2013-07-26 08:28:00,
2013-07-26 03:33:00,60.8,59.1,30.02,ENE,69,3.0,4.0,94,0.00,,,0.00,Wunderground v.1.15,2013-07-26 08:33:00,
2013-07-26 03:38:00,60.8,59.1,30.03,ENE,71,2.0,4.0,94,0.00,,,0.00,Wunderground v.1.15,2013-07-26 08:38:00,
2013-07-26 03:43:00,60.8,59.1,30.03,ENE,69,3.0,3.0,94,0.00,,,0.00,Wunderground v.1.15,2013-07-26 08:43:00,
2013-07-26 03:48:00,60.7,59.0,30.03,ENE,71,2.0,3.0,94,0.00,,,0.00,Wunderground v.1.15,2013-07-26 08:48:00,
2013-07-26 03:53:00,60.7,59.0,30.03,ENE,67,4.0,5.0,94,0.00,,,0.00,Wunderground v.1.15,2013-07-26 08:53:00,
2013-07-26 03:58:00,60.5,58.8,30.03,NE,56,5.0,5.0,94,0.00,,,0.00,Wunderground v.1.15,2013-07-26 08:58:00,
2013-07-26 04:03:00,60.5,58.8,30.03,ENE,58,5.0,5.0,94,0.00,,,0.00,Wunderground v.1.15,2013-07-26 09:03:00,
2013-07-26 04:08:00,60.4,58.7,30.03,ENE,57,5.0,6.0,94,0.00,,,0.00,Wunderground v.1.15,2013-07-26 09:08:00,
2013-07-26 04:13:00,60.3,58.6,30.03,NE,56,4.0,6.0,94,0.00,,,0.00,Wunderground v.1.15,2013-07-26 09:13:00,
2013-07-26 04:18:00,60.3,58.6,30.02,ENE,58,5.0,6.0,94,0.00,,,0.00,Wunderground v.1.15,2013-07-26 09:18:00,
2013-07-26 04:23:00,60.2,58.5,30.02,NE,54,5.0,6.0,94,0.00,,,0.00,Wunderground v.1.15,2013-07-26 09:23:00,
2013-07-26 04:28:00,60.2,58.5,30.02,ENE,58,5.0,6.0,94,0.00,,,0.00,Wunderground v.1.15,2013-07-26 09:28:00,
2013-07-26 04:33:00,60.1,58.4,30.02,ENE,57,5.0,5.0,94,0.00,,,0.00,Wunderground v.1.15,2013-07-26 09:33:00,
2013-07-26 04:38:00,60.0,58.3,30.02,ENE,57,4.0,5.0,94,0.00,,,0.00,Wunderground v.1.15,2013-07-26 09:38:00,
2013-07-26 04:43:00,60.1,58.4,30.02,ENE,57,3.0,5.0,94,0.00,,,0.00,Wunderground v.1.15,2013-07-26 09:43:00,
2013-07-26 04:48:00,60.0,58.3,30.02,NE,54,4.0,5.0,94,0.00,,,0.00,Wunderground v.1.15,2013-07-26 09:48:00,
2013-07-26 04:53:00,60.0,58.3,30.02,NE,55,5.0,5.0,94,0.00,,,0.00,Wunderground v.1.15,2013-07-26 09:53:00,
2013-07-26 04:58:00,59.9,58.2,30.02,NE,56,3.0,5.0,94,0.00,,,0.00,Wunderground v.1.15,2013-07-26 09:58:00,
2013-07-26 05:03:00,59.9,58.2,30.02,NE,56,3.0,4.0,94,0.00,,,0.00,Wunderground v.1.15,2013-07-26 10:03:00,
2013-07-26 05:08:00,59.9,58.2,30.02,NE,55,4.0,4.0,94,0.00,,,0.00,Wunderground v.1.15,2013-07-26 10:08:00,
2013-07-26 05:13:00,59.9,58.2,30.02,ENE,58,2.0,3.0,94,0.00,,,0.00,Wunderground v.1.15,2013-07-26 10:13:00,
2013-07-26 05:18:00,59.8,58.1,30.03,ENE,57,1.0,3.0,94,0.00,,,0.00,Wunderground v.1.15,2013-07-26 10:18:00,
2013-07-26 05:23:00,59.8,58.1,30.02,ENE,58,1.0,2.0,94,0.00,,,0.00,Wunderground v.1.15,2013-07-26 10:23:00,
2013-07-26 05:28:00,59.8,58.1,30.03,ENE,58,1.0,2.0,94,0.00,,,0.00,Wunderground v.1.15,2013-07-26 10:28:00,
2013-07-26 05:33:00,59.7,58.0,30.03,NE,54,2.0,3.0,94,0.00,,,0.00,Wunderground v.1.15,2013-07-26 10:33:00,
2013-07-26 05:38:00,59.7,58.0,30.03,NE,55,1.0,3.0,94,0.00,,,0.00,Wunderground v.1.15,2013-07-26 10:38:00,
2013-07-26 05:43:00,59.6,58.2,30.03,ENE,59,1.0,2.0,95,0.00,,,0.00,Wunderground v.1.15,2013-07-26 10:43:00,
2013-07-26 05:48:00,59.6,57.9,30.03,NE,56,1.0,2.0,94,0.00,,,0.00,Wunderground v.1.15,2013-07-26 10:48:00,
2013-07-26 05:53:00,59.6,58.2,30.03,ENE,58,1.0,1.0,95,0.00,,,0.00,Wunderground v.1.15,2013-07-26 10:53:00,
2013-07-26 05:58:00,59.6,58.2,30.03,ENE,57,0.0,1.0,95,0.00,,,0.00,Wunderground v.1.15,2013-07-26 10:58:00,
2013-07-26 06:03:00,59.6,58.2,30.04,NE,56,0.0,0.0,95,0.00,,,0.00,Wunderground v.1.15,2013-07-26 11:03:00,
2013-07-26 06:09:00,59.6,58.2,30.04,NE,56,0.0,0.0,95,0.00,,,0.00,Wunderground v.1.15,2013-07-26 11:09:00,
2013-07-26 06:14:00,59.6,58.2,30.04,NE,54,0.0,0.0,95,0.00,,,0.00,Wunderground v.1.15,2013-07-26 11:14:00,
2013-07-26 06:19:00,59.7,58.3,30.04,NE,55,0.0,0.0,95,0.00,,,0.00,Wunderground v.1.15,2013-07-26 11:19:00,
2013-07-26 06:24:00,59.7,58.3,30.04,NE,55,0.0,0.0,95,0.00,,,0.00,Wunderground v.1.15,2013-07-26 11:24:00,
2013-07-26 06:29:00,59.8,58.4,30.04,ENE,58,0.0,1.0,95,0.00,,,0.00,Wunderground v.1.15,2013-07-26 11:29:00,
2013-07-26 06:34:00,59.8,58.4,30.04,NE,56,0.0,0.0,95,0.00,,,0.00,Wunderground v.1.15,2013-07-26 11:34:00,
2013-07-26 06:39:00,59.9,58.5,30.04,NE,55,1.0,2.0,95,0.00,,,0.00,Wunderground v.1.15,2013-07-26 11:39:00,
2013-07-26 06:44:00,60.2,58.8,30.04,NE,55,3.0,3.0,95,0.00,,,0.00,Wunderground v.1.15,2013-07-26 11:44:00,
2013-07-26 06:50:00,60.5,59.4,30.04,ENE,59,3.0,3.0,96,0.00,,,0.00,Wunderground v.1.15,2013-07-26 11:50:00,
2013-07-26 06:55:00,60.9,59.8,30.03,NE,55,4.0,5.0,96,0.00,,,0.00,Wunderground v.1.15,2013-07-26 11:55:00,
2013-07-26 07:00:00,61.2,60.1,30.04,ENE,58,4.0,4.0,96,0.00,,,0.00,Wunderground v.1.15,2013-07-26 12:00:00,
2013-07-26 07:05:00,61.4,60.2,30.04,ENE,60,2.0,4.0,96,0.00,,,0.00,Wunderground v.1.15,2013-07-26 12:05:00,
2013-07-26 07:11:00,61.8,60.6,30.04,ENE,57,1.0,2.0,96,0.00,,,0.00,Wunderground v.1.15,2013-07-26 12:11:00,
2013-07-26 07:16:00,62.1,60.9,30.04,ENE,58,3.0,3.0,96,0.00,,,0.00,Wunderground v.1.15,2013-07-26 12:16:00,
2013-07-26 07:21:00,62.3,61.1,30.04,West,279,0.0,1.0,96,0.00,,,0.00,Wunderground v.1.15,2013-07-26 12:21:00,
2013-07-26 07:26:00,62.7,61.5,30.04,ENE,58,1.0,2.0,96,0.00,,,0.00,Wunderground v.1.15,2013-07-26 12:26:00,
2013-07-26 07:31:00,63.1,61.9,30.04,ENE,58,0.0,2.0,96,0.00,,,0.00,Wunderground v.1.15,2013-07-26 12:31:00,
2013-07-26 07:36:00,64.2,63.0,30.04,ENE,58,0.0,2.0,96,0.00,,,0.00,Wunderground v.1.15,2013-07-26 12:36:00,
2013-07-26 07:42:00,65.3,64.1,30.04,ENE,58,0.0,2.0,96,0.00,,,0.00,Wunderground v.1.15,2013-07-26 12:42:00,
2013-07-26 07:47:00,66.4,65.2,30.04,ENE,58,0.0,2.0,96,0.00,,,0.00,Wunderground v.1.15,2013-07-26 12:47:00,
2013-07-26 07:52:00,66.8,65.6,30.04,ENE,58,0.0,0.0,96,0.00,,,0.00,Wunderground v.1.15,2013-07-26 12:52:00,
2013-07-26 07:57:00,67.7,66.5,30.04,ENE,58,0.0,1.0,96,0.00,,,0.00,Wunderground v.1.15,2013-07-26 12:57:00,
2013-07-26 08:02:00,68.7,67.5,30.04,ENE,57,0.0,2.0,96,0.00,,,0.00,Wunderground v.1.15,2013-07-26 13:02:00,
2013-07-26 08:08:00,70.3,66.9,30.04,ENE,60,0.0,2.0,89,0.00,,,0.00,Wunderground v.1.15,2013-07-26 13:08:00,
2013-07-26 08:13:00,71.8,67.0,30.04,West,279,1.0,1.0,85,0.00,,,0.00,Wunderground v.1.15,2013-07-26 13:13:00,
2013-07-26 08:18:00,73.1,66.6,30.04,ENE,59,0.0,1.0,80,0.00,,,0.00,Wunderground v.1.15,2013-07-26 13:18:00,
2013-07-26 08:23:00,74.1,66.8,30.04,ENE,58,0.0,2.0,78,0.00,,,0.00,Wunderground v.1.15,2013-07-26 13:23:00,
2013-07-26 08:28:00,75.1,65.9,30.04,ENE,58,0.0,2.0,73,0.00,,,0.00,Wunderground v.1.15,2013-07-26 13:28:00,
2013-07-26 08:33:00,76.1,66.0,30.04,ENE,60,1.0,1.0,71,0.00,,,0.00,Wunderground v.1.15,2013-07-26 13:33:00,
2013-07-26 08:38:00,76.9,66.0,30.04,West,279,0.0,1.0,69,0.00,,,0.00,Wunderground v.1.15,2013-07-26 13:38:00,
2013-07-26 08:43:00,77.4,65.1,30.04,ENE,58,0.0,1.0,66,0.00,,,0.00,Wunderground v.1.15,2013-07-26 13:43:00,
2013-07-26 08:49:00,77.6,65.3,30.04,ENE,57,1.0,2.0,66,0.00,,,0.00,Wunderground v.1.15,2013-07-26 13:49:00,
2013-07-26 08:54:00,78.0,65.7,30.04,ENE,58,0.0,2.0,66,0.00,,,0.00,Wunderground v.1.15,2013-07-26 13:54:00,
2013-07-26 08:59:00,78.4,64.8,30.04,ENE,58,0.0,2.0,63,0.00,,,0.00,Wunderground v.1.15,2013-07-26 13:59:00,
2013-07-26 09:04:00,78.7,65.0,30.04,ENE,58,0.0,3.0,63,0.00,,,0.00,Wunderground v.1.15,2013-07-26 14:04:00,
2013-07-26 09:09:00,78.9,64.8,30.05,ENE,60,0.0,3.0,62,0.00,,,0.00,Wunderground v.1.15,2013-07-26 14:09:00,
2013-07-26 09:14:00,79.1,65.9,30.04,West,279,0.0,4.0,64,0.00,,,0.00,Wunderground v.1.15,2013-07-26 14:14:00,
2013-07-26 09:19:00,79.5,65.3,30.04,East,98,2.0,5.0,62,0.00,,,0.00,Wunderground v.1.15,2013-07-26 14:19:00,
2013-07-26 09:24:00,79.5,64.4,30.04,SE,136,1.0,5.0,60,0.00,,,0.00,Wunderground v.1.15,2013-07-26 14:24:00,
2013-07-26 09:29:00,79.2,64.1,30.04,SE,140,2.0,5.0,60,0.00,,,0.00,Wunderground v.1.15,2013-07-26 14:29:00,
2013-07-26 09:34:00,79.4,63.3,30.04,SE,144,3.0,4.0,58,0.00,,,0.00,Wunderground v.1.15,2013-07-26 14:34:00,
2013-07-26 09:39:00,79.5,62.9,30.04,West,279,0.0,5.0,57,0.00,,,0.00,Wunderground v.1.15,2013-07-26 14:39:00,
2013-07-26 09:44:00,79.3,63.2,30.04,SE,142,0.0,4.0,58,0.00,,,0.00,Wunderground v.1.15,2013-07-26 14:44:00,
2013-07-26 09:49:00,79.8,63.2,30.04,SE,145,0.0,4.0,57,0.00,,,0.00,Wunderground v.1.15,2013-07-26 14:49:00,
2013-07-26 09:55:00,80.4,64.8,30.04,West,279,0.0,3.0,59,0.00,,,0.00,Wunderground v.1.15,2013-07-26 14:55:00,
2013-07-26 10:00:00,80.6,64.9,30.04,SSE,151,4.0,4.0,59,0.00,,,0.00,Wunderground v.1.15,2013-07-26 15:00:00,
2013-07-26 10:05:00,80.8,64.6,30.04,SSW,199,1.0,6.0,58,0.00,,,0.00,Wunderground v.1.15,2013-07-26 15:05:00,
2013-07-26 10:10:00,80.6,65.4,30.04,SSW,210,3.0,3.0,60,0.00,,,0.00,Wunderground v.1.15,2013-07-26 15:10:00,
2013-07-26 10:15:00,80.2,63.6,30.04,WSW,238,3.0,5.0,57,0.00,,,0.00,Wunderground v.1.15,2013-07-26 15:15:00,
2013-07-26 10:20:00,80.3,63.2,30.05,SW,219,5.0,5.0,56,0.00,,,0.00,Wunderground v.1.15,2013-07-26 15:20:00,
2013-07-26 10:25:00,80.3,63.2,30.05,SSW,192,1.0,6.0,56,0.00,,,0.00,Wunderground v.1.15,2013-07-26 15:25:00,
2013-07-26 10:30:00,80.7,62.5,30.04,West,279,5.0,6.0,54,0.00,,,0.00,Wunderground v.1.15,2013-07-26 15:30:00,
2013-07-26 10:35:00,80.5,62.8,30.04,SSW,198,5.0,7.0,55,0.00,,,0.00,Wunderground v.1.15,2013-07-26 15:35:00,
2013-07-26 10:40:00,80.3,64.2,30.04,SW,223,5.0,6.0,58,0.00,,,0.00,Wunderground v.1.15,2013-07-26 15:40:00,
2013-07-26 10:45:00,80.4,62.8,30.04,WSW,240,0.0,6.0,55,0.00,,,0.00,Wunderground v.1.15,2013-07-26 15:45:00,
2013-07-26 10:50:00,80.8,62.6,30.04,West,279,4.0,4.0,54,0.00,,,0.00,Wunderground v.1.15,2013-07-26 15:50:00,
2013-07-26 10:55:00,81.0,63.8,30.04,SW,236,5.0,7.0,56,0.00,,,0.00,Wunderground v.1.15,2013-07-26 15:55:00,
2013-07-26 11:00:00,80.9,62.2,30.04,West,259,3.0,4.0,53,0.00,,,0.00,Wunderground v.1.15,2013-07-26 16:00:00,
2013-07-26 11:05:00,81.0,62.3,30.03,WNW,291,2.0,5.0,53,0.00,,,0.00,Wunderground v.1.15,2013-07-26 16:05:00,
2013-07-26 11:10:00,80.8,62.1,30.03,WNW,292,2.0,3.0,53,0.00,,,0.00,Wunderground v.1.15,2013-07-26 16:10:00,
2013-07-26 11:15:00,81.3,64.1,30.03,SSW,210,4.0,5.0,56,0.00,,,0.00,Wunderground v.1.15,2013-07-26 16:15:00,
2013-07-26 11:20:00,81.6,62.3,30.03,SW,223,3.0,4.0,52,0.00,,,0.00,Wunderground v.1.15,2013-07-26 16:20:00,
2013-07-26 11:25:00,82.2,62.3,30.03,West,279,5.0,6.0,51,0.00,,,0.00,Wunderground v.1.15,2013-07-26 16:25:00,
2013-07-26 11:30:00,83.0,61.9,30.03,SSW,194,2.0,4.0,49,0.00,,,0.00,Wunderground v.1.15,2013-07-26 16:30:00,
2013-07-26 11:35:00,83.1,63.1,30.03,West,267,3.0,5.0,51,0.00,,,0.00,Wunderground v.1.15,2013-07-26 16:35:00,
2013-07-26 11:40:00,83.6,63.0,30.04,West,274,4.0,4.0,50,0.00,,,0.00,Wunderground v.1.15,2013-07-26 16:40:00,
2013-07-26 11:45:00,83.8,63.2,30.03,SW,232,5.0,9.0,50,0.00,,,0.00,Wunderground v.1.15,2013-07-26 16:45:00,
2013-07-26 11:50:00,83.1,64.7,30.04,WNW,299,5.0,6.0,54,0.00,,,0.00,Wunderground v.1.15,2013-07-26 16:50:00,
2013-07-26 11:55:00,82.7,63.8,30.03,NW,307,1.0,6.0,53,0.00,,,0.00,Wunderground v.1.15,2013-07-26 16:55:00,
2013-07-26 12:01:00,82.7,63.8,30.03,West,261,5.0,5.0,53,0.00,,,0.00,Wunderground v.1.15,2013-07-26 17:01:00,
2013-07-26 12:06:00,82.5,62.0,30.03,West,279,4.0,7.0,50,0.00,,,0.00,Wunderground v.1.15,2013-07-26 17:06:00,
2013-07-26 12:11:00,82.5,63.1,30.03,SW,225,6.0,9.0,52,0.00,,,0.00,Wunderground v.1.15,2013-07-26 17:11:00,
2013-07-26 12:16:00,82.1,62.2,30.03,West,279,1.0,9.0,51,0.00,,,0.00,Wunderground v.1.15,2013-07-26 17:16:00,
2013-07-26 12:21:00,82.3,61.8,30.03,NW,312,0.0,4.0,50,0.00,,,0.00,Wunderground v.1.15,2013-07-26 17:21:00,
2013-07-26 12:26:00,82.8,63.9,30.03,NNW,346,1.0,4.0,53,0.00,,,0.00,Wunderground v.1.15,2013-07-26 17:26:00,
2013-07-26 12:31:00,83.0,63.6,30.03,SSW,206,2.0,5.0,52,0.00,,,0.00,Wunderground v.1.15,2013-07-26 17:31:00,
2013-07-26 12:36:00,83.2,64.8,30.03,SSW,199,4.0,11.0,54,0.00,,,0.00,Wunderground v.1.15,2013-07-26 17:36:00,
2013-07-26 12:41:00,83.3,63.3,30.03,South,184,5.0,8.0,51,0.00,,,0.00,Wunderground v.1.15,2013-07-26 17:41:00,
2013-07-26 12:47:00,83.2,64.8,30.03,WSW,242,0.0,8.0,54,0.00,,,0.00,Wunderground v.1.15,2013-07-26 17:47:00,
2013-07-26 12:52:00,83.3,63.8,30.03,WSW,251,6.0,7.0,52,0.00,,,0.00,Wunderground v.1.15,2013-07-26 17:52:00,
2013-07-26 12:57:00,83.3,64.9,30.03,WSW,247,4.0,7.0,54,0.00,,,0.00,Wunderground v.1.15,2013-07-26 17:57:00,
2013-07-26 13:02:00,83.1,65.8,30.03,West,279,4.0,8.0,56,0.00,,,0.00,Wunderground v.1.15,2013-07-26 18:02:00,
2013-07-26 13:07:00,82.9,65.6,30.03,West,261,5.0,8.0,56,0.00,,,0.00,Wunderground v.1.15,2013-07-26 18:07:00,
2013-07-26 13:12:00,83.1,65.3,30.02,WNW,290,3.0,5.0,55,0.00,,,0.00,Wunderground v.1.15,2013-07-26 18:12:00,
2013-07-26 13:17:00,83.3,64.9,30.03,West,262,3.0,8.0,54,0.00,,,0.00,Wunderground v.1.15,2013-07-26 18:17:00,
2013-07-26 13:22:00,83.1,65.3,30.02,SSW,202,6.0,10.0,55,0.00,,,0.00,Wunderground v.1.15,2013-07-26 18:22:00,
2013-07-26 13:27:00,82.9,64.5,30.02,South,191,4.0,10.0,54,0.00,,,0.00,Wunderground v.1.15,2013-07-26 18:27:00,
2013-07-26 13:32:00,82.7,63.8,30.02,SSW,211,2.0,4.0,53,0.00,,,0.00,Wunderground v.1.15,2013-07-26 18:32:00,
2013-07-26 13:37:00,82.4,64.1,30.02,SSW,211,9.0,11.0,54,0.00,,,0.00,Wunderground v.1.15,2013-07-26 18:37:00,
2013-07-26 13:42:00,82.0,65.3,30.02,SSW,205,6.0,6.0,57,0.00,,,0.00,Wunderground v.1.15,2013-07-26 18:42:00,
2013-07-26 13:47:00,81.4,64.2,30.02,WSW,237,4.0,6.0,56,0.00,,,0.00,Wunderground v.1.15,2013-07-26 18:47:00,
2013-07-26 13:52:00,81.3,65.6,30.02,SSW,198,10.0,11.0,59,0.00,,,0.00,Wunderground v.1.15,2013-07-26 18:52:00,
2013-07-26 13:57:00,81.3,67.0,30.02,West,279,6.0,11.0,62,0.00,,,0.00,Wunderground v.1.15,2013-07-26 18:57:00,
2013-07-26 14:02:00,81.5,66.8,30.02,WSW,240,6.0,7.0,61,0.00,,,0.00,Wunderground v.1.15,2013-07-26 19:02:00,
2013-07-26 14:07:00,81.5,66.3,30.02,WSW,238,5.0,8.0,60,0.00,,,0.00,Wunderground v.1.15,2013-07-26 19:07:00,
2013-07-26 14:12:00,81.5,64.3,30.02,WSW,239,4.0,6.0,56,0.00,,,0.00,Wunderground v.1.15,2013-07-26 19:12:00,
2013-07-26 14:17:00,81.5,65.8,30.02,SW,225,10.0,10.0,59,0.00,,,0.00,Wunderground v.1.15,2013-07-26 19:17:00,
2013-07-26 14:22:00,81.4,65.7,30.02,West,279,4.0,12.0,59,0.00,,,0.00,Wunderground v.1.15,2013-07-26 19:22:00,
2013-07-26 14:27:00,81.4,64.7,30.02,WSW,237,6.0,12.0,57,0.00,,,0.00,Wunderground v.1.15,2013-07-26 19:27:00,
2013-07-26 14:32:00,81.3,66.6,30.02,West,261,3.0,6.0,61,0.00,,,0.00,Wunderground v.1.15,2013-07-26 19:32:00,
2013-07-26 14:38:00,81.4,66.7,30.02,WSW,238,6.0,11.0,61,0.00,,,0.00,Wunderground v.1.15,2013-07-26 19:38:00,
2013-07-26 14:43:00,81.4,66.7,30.02,WSW,238,7.0,7.0,61,0.00,,,0.00,Wunderground v.1.15,2013-07-26 19:43:00,
2013-07-26 14:48:00,81.5,66.3,30.02,WSW,238,4.0,8.0,60,0.00,,,0.00,Wunderground v.1.15,2013-07-26 19:48:00,
2013-07-26 14:53:00,81.6,65.9,30.02,SW,228,7.0,9.0,59,0.00,,,0.00,Wunderground v.1.15,2013-07-26 19:53:00,
2013-07-26 14:58:00,81.2,64.5,30.02,SW,226,4.0,9.0,57,0.00,,,0.00,Wunderground v.1.15,2013-07-26 19:58:00,
2013-07-26 15:03:00,81.2,66.0,30.02,SW,226,4.0,6.0,60,0.00,,,0.00,Wunderground v.1.15,2013-07-26 20:03:00,
2013-07-26 15:08:00,81.5,66.3,30.01,West,279,0.0,6.0,60,0.00,,,0.00,Wunderground v.1.15,2013-07-26 20:08:00,
2013-07-26 15:13:00,81.9,66.6,30.01,West,279,2.0,7.0,60,0.00,,,0.00,Wunderground v.1.15,2013-07-26 20:13:00,
2013-07-26 15:18:00,82.2,66.0,30.01,SSW,201,2.0,7.0,58,0.00,,,0.00,Wunderground v.1.15,2013-07-26 20:18:00,
2013-07-26 15:23:00,82.4,65.6,30.00,SSE,163,3.0,5.0,57,0.00,,,0.00,Wunderground v.1.15,2013-07-26 20:23:00,
2013-07-26 15:28:00,82.6,66.8,30.01,West,279,8.0,11.0,59,0.00,,,0.00,Wunderground v.1.15,2013-07-26 20:28:00,
2013-07-26 15:33:00,82.4,67.1,30.00,SSW,200,10.0,11.0,60,0.00,,,0.00,Wunderground v.1.15,2013-07-26 20:33:00,
2013-07-26 15:39:00,82.0,66.3,30.00,SSW,209,8.0,11.0,59,0.00,,,0.00,Wunderground v.1.15,2013-07-26 20:39:00,
2013-07-26 15:44:00,81.5,66.8,30.01,West,279,9.0,10.0,61,0.00,,,0.00,Wunderground v.1.15,2013-07-26 20:44:00,
2013-07-26 15:49:00,81.1,66.4,30.01,SW,223,7.0,11.0,61,0.00,,,0.00,Wunderground v.1.15,2013-07-26 20:49:00,
2013-07-26 15:54:00,80.7,65.5,30.01,SSW,209,10.0,12.0,60,0.00,,,0.00,Wunderground v.1.15,2013-07-26 20:54:00,
2013-07-26 15:59:00,80.4,67.1,30.01,South,191,12.0,12.0,64,0.00,,,0.00,Wunderground v.1.15,2013-07-26 20:59:00,
2013-07-26 16:04:00,80.0,67.2,30.01,SSW,210,7.0,10.0,65,0.00,,,0.00,Wunderground v.1.15,2013-07-26 21:04:00,
2013-07-26 16:09:00,79.6,67.2,30.01,SW,230,10.0,12.0,66,0.00,,,0.00,Wunderground v.1.15,2013-07-26 21:09:00,
2013-07-26 16:14:00,79.1,65.9,30.01,SW,226,11.0,11.0,64,0.00,,,0.00,Wunderground v.1.15,2013-07-26 21:14:00,
2013-07-26 16:19:00,78.8,66.5,30.01,WNW,284,11.0,11.0,66,0.00,,,0.00,Wunderground v.1.15,2013-07-26 21:19:00,
2013-07-26 16:24:00,78.6,67.2,30.01,West,265,11.0,12.0,68,0.00,,,0.00,Wunderground v.1.15,2013-07-26 21:24:00,
2013-07-26 16:29:00,78.3,65.6,30.01,West,269,9.0,12.0,65,0.00,,,0.00,Wunderground v.1.15,2013-07-26 21:29:00,
2013-07-26 16:34:00,78.1,66.7,30.01,WSW,240,5.0,10.0,68,0.00,,,0.00,Wunderground v.1.15,2013-07-26 21:34:00,
2013-07-26 16:39:00,78.0,67.0,30.01,West,279,7.0,10.0,69,0.00,,,0.00,Wunderground v.1.15,2013-07-26 21:39:00,
2013-07-26 16:44:00,77.8,67.2,30.01,WSW,255,6.0,8.0,70,0.00,,,0.00,Wunderground v.1.15,2013-07-26 21:44:00,
2013-07-26 16:49:00,77.8,66.8,30.01,WNW,288,7.0,10.0,69,0.00,,,0.00,Wunderground v.1.15,2013-07-26 21:49:00,
2013-07-26 16:54:00,77.7,67.5,30.01,West,259,4.0,7.0,71,0.00,,,0.00,Wunderground v.1.15,2013-07-26 21:54:00,
2013-07-26 16:59:00,77.7,66.7,30.01,WSW,251,8.0,10.0,69,0.00,,,0.00,Wunderground v.1.15,2013-07-26 21:59:00,
2013-07-26 17:04:00,77.7,67.1,30.01,West,279,6.0,8.0,70,0.00,,,0.00,Wunderground v.1.15,2013-07-26 22:04:00,
2013-07-26 17:09:00,77.7,67.1,30.01,West,259,6.0,11.0,70,0.00,,,0.00,Wunderground v.1.15,2013-07-26 22:09:00,
2013-07-26 17:14:00,77.7,66.7,30.01,West,261,6.0,9.0,69,0.00,,,0.00,Wunderground v.1.15,2013-07-26 22:14:00,
2013-07-26 17:19:00,77.7,67.1,30.01,West,274,4.0,9.0,70,0.00,,,0.00,Wunderground v.1.15,2013-07-26 22:19:00,
2013-07-26 17:24:00,77.6,67.0,30.01,West,279,5.0,7.0,70,0.00,,,0.00,Wunderground v.1.15,2013-07-26 22:24:00,
2013-07-26 17:29:00,77.5,66.9,30.01,West,279,4.0,7.0,70,0.00,,,0.00,Wunderground v.1.15,2013-07-26 22:29:00,
2013-07-26 17:34:00,77.5,66.9,30.01,West,279,4.0,9.0,70,0.00,,,0.00,Wunderground v.1.15,2013-07-26 22:34:00,
2013-07-26 17:39:00,77.4,66.4,30.00,West,269,5.0,9.0,69,0.00,,,0.00,Wunderground v.1.15,2013-07-26 22:39:00,
2013-07-26 17:44:00,77.3,66.7,30.00,West,279,7.0,7.0,70,0.00,,,0.00,Wunderground v.1.15,2013-07-26 22:44:00,
2013-07-26 17:49:00,77.2,67.1,30.00,West,279,6.0,7.0,71,0.00,,,0.00,Wunderground v.1.15,2013-07-26 22:49:00,
2013-07-26 17:54:00,77.1,67.0,30.01,West,279,6.0,6.0,71,0.00,,,0.00,Wunderground v.1.15,2013-07-26 22:54:00,
2013-07-26 17:59:00,77.0,67.3,30.00,West,279,6.0,7.0,72,0.00,,,0.00,Wunderground v.1.15,2013-07-26 22:59:00,
2013-07-26 18:04:00,76.9,66.4,30.01,West,274,5.0,7.0,70,0.00,,,0.00,Wunderground v.1.15,2013-07-26 23:04:00,
2013-07-26 18:09:00,76.8,66.3,30.00,West,279,6.0,8.0,70,0.00,,,0.00,Wunderground v.1.15,2013-07-26 23:09:00,
2013-07-26 18:14:00,76.6,66.5,30.00,WNW,293,7.0,8.0,71,0.00,,,0.00,Wunderground v.1.15,2013-07-26 23:14:00,
2013-07-26 18:19:00,76.5,66.8,30.00,West,270,8.0,10.0,72,0.00,,,0.00,Wunderground v.1.15,2013-07-26 23:19:00,
2013-07-26 18:24:00,76.4,65.9,30.00,WNW,288,7.0,8.0,70,0.00,,,0.00,Wunderground v.1.15,2013-07-26 23:24:00,
2013-07-26 18:29:00,76.3,66.6,30.00,NW,305,6.0,9.0,72,0.00,,,0.00,Wunderground v.1.15,2013-07-26 23:29:00,
2013-07-26 18:34:00,76.2,67.7,30.00,WNW,294,5.0,9.0,75,0.00,,,0.00,Wunderground v.1.15,2013-07-26 23:34:00,
2013-07-26 18:39:00,76.1,68.0,30.00,NNW,331,6.0,9.0,76,0.00,,,0.00,Wunderground v.1.15,2013-07-26 23:39:00,
2013-07-26 18:44:00,76.0,66.7,30.00,NW,323,4.0,8.0,73,0.00,,,0.00,Wunderground v.1.15,2013-07-26 23:44:00,
2013-07-26 18:49:00,75.8,67.7,30.00,NNW,336,3.0,8.0,76,0.00,,,0.00,Wunderground v.1.15,2013-07-26 23:49:00,
2013-07-26 18:54:00,75.6,67.5,30.00,NW,318,5.0,7.0,76,0.00,,,0.00,Wunderground v.1.15,2013-07-26 23:54:00,
2013-07-26 18:59:00,75.5,68.2,29.99,NNW,330,6.0,7.0,78,0.00,,,0.00,Wunderground v.1.15,2013-07-26 23:59:00,
2013-07-26 19:04:00,75.5,68.2,29.99,NW,313,4.0,8.0,78,0.00,,,0.00,Wunderground v.1.15,2013-07-27 00:04:00,
2013-07-26 19:09:00,75.4,67.7,29.99,NNW,334,6.0,8.0,77,0.00,,,0.00,Wunderground v.1.15,2013-07-27 00:09:00,
2013-07-26 19:14:00,75.2,67.5,29.99,NNW,329,5.0,7.0,77,0.00,,,0.00,Wunderground v.1.15,2013-07-27 00:14:00,
2013-07-26 19:19:00,75.2,67.5,29.99,NW,324,3.0,7.0,77,0.00,,,0.00,Wunderground v.1.15,2013-07-27 00:19:00,
2013-07-26 19:24:00,75.1,67.4,29.99,NNW,327,5.0,7.0,77,0.00,,,0.00,Wunderground v.1.15,2013-07-27 00:24:00,
2013-07-26 19:29:00,74.9,67.6,29.99,NW,314,5.0,7.0,78,0.00,,,0.00,Wunderground v.1.15,2013-07-27 00:29:00,
2013-07-26 19:34:00,74.8,67.8,29.99,NW,323,5.0,7.0,79,0.00,,,0.00,Wunderground v.1.15,2013-07-27 00:34:00,
2013-07-26 19:39:00,74.6,68.7,29.98,NW,323,5.0,7.0,82,0.00,,,0.00,Wunderground v.1.15,2013-07-27 00:39:00,
2013-07-26 19:44:00,74.3,68.4,29.98,NNW,333,5.0,7.0,82,0.00,,,0.00,Wunderground v.1.15,2013-07-27 00:44:00,
2013-07-26 19:49:00,74.1,67.9,29.98,NNW,336,5.0,9.0,81,0.00,,,0.00,Wunderground v.1.15,2013-07-27 00:49:00,
2013-07-26 19:54:00,73.8,68.3,29.98,NNW,330,6.0,8.0,83,0.00,,,0.00,Wunderground v.1.15,2013-07-27 00:54:00,
2013-07-26 19:59:00,73.6,68.1,29.98,NNW,330,5.0,8.0,83,0.00,,,0.00,Wunderground v.1.15,2013-07-27 00:59:00,
2013-07-26 20:04:00,73.4,67.6,29.98,NW,321,3.0,5.0,82,0.00,,,0.00,Wunderground v.1.15,2013-07-27 01:04:00,
2013-07-26 20:09:00,73.2,67.7,29.98,NW,318,5.0,6.0,83,0.00,,,0.00,Wunderground v.1.15,2013-07-27 01:09:00,
2013-07-26 20:14:00,73.1,68.0,29.98,NW,318,2.0,5.0,84,0.00,,,0.00,Wunderground v.1.15,2013-07-27 01:14:00,
2013-07-26 20:19:00,72.8,67.7,29.98,NW,318,2.0,5.0,84,0.00,,,0.00,Wunderground v.1.15,2013-07-27 01:19:00,
2013-07-26 20:24:00,72.6,67.5,29.97,NW,318,2.0,3.0,84,0.00,,,0.00,Wunderground v.1.15,2013-07-27 01:24:00,
2013-07-26 20:29:00,72.4,67.6,29.97,NW,318,2.0,3.0,85,0.00,,,0.00,Wunderground v.1.15,2013-07-27 01:29:00,
2013-07-26 20:34:00,72.1,67.0,29.97,NW,319,2.0,3.0,84,0.00,,,0.00,Wunderground v.1.15,2013-07-27 01:34:00,
2013-07-26 20:39:00,71.8,67.0,29.97,NW,318,1.0,3.0,85,0.00,,,0.00,Wunderground v.1.15,2013-07-27 01:39:00,
2013-07-26 20:44:00,71.5,66.8,29.97,NW,318,0.0,2.0,85,0.00,,,0.00,Wunderground v.1.15,2013-07-27 01:44:00,
2013-07-26 20:49:00,71.3,66.9,29.97,NW,318,1.0,2.0,86,0.00,,,0.00,Wunderground v.1.15,2013-07-27 01:49:00,
2013-07-26 20:54:00,71.1,66.7,29.96,NW,317,0.0,2.0,86,0.00,,,0.00,Wunderground v.1.15,2013-07-27 01:54:00,
2013-07-26 20:59:00,70.9,66.8,29.96,NW,318,2.0,3.0,87,0.00,,,0.00,Wunderground v.1.15,2013-07-27 01:59:00,
2013-07-26 21:04:00,70.8,66.7,29.96,NW,318,2.0,3.0,87,0.00,,,0.00,Wunderground v.1.15,2013-07-27 02:04:00,
2013-07-26 21:09:00,70.6,66.5,29.96,NW,318,2.0,3.0,87,0.00,,,0.00,Wunderground v.1.15,2013-07-27 02:09:00,
2013-07-26 21:14:00,70.6,66.5,29.96,NW,319,3.0,4.0,87,0.00,,,0.00,Wunderground v.1.15,2013-07-27 02:14:00,
2013-07-26 21:19:00,70.5,66.4,29.96,NNW,337,4.0,4.0,87,0.00,,,0.00,Wunderground v.1.15,2013-07-27 02:19:00,
2013-07-26 21:24:00,70.4,66.7,29.97,North,10,5.0,5.0,88,0.00,,,0.00,Wunderground v.1.15,2013-07-27 02:24:00,
2013-07-26 21:29:00,70.3,66.6,29.96,NNE,17,3.0,5.0,88,0.00,,,0.00,Wunderground v.1.15,2013-07-27 02:29:00,
2013-07-26 21:34:00,70.3,66.6,29.96,NNE,15,1.0,4.0,88,0.00,,,0.00,Wunderground v.1.15,2013-07-27 02:34:00,
2013-07-26 21:39:00,70.3,66.9,29.97,NNE,16,1.0,4.0,89,0.00,,,0.00,Wunderground v.1.15,2013-07-27 02:39:00,
2013-07-26 21:44:00,70.3,66.9,29.96,NNE,17,3.0,3.0,89,0.00,,,0.00,Wunderground v.1.15,2013-07-27 02:44:00,
2013-07-26 21:49:00,70.3,66.9,29.96,ENE,57,5.0,6.0,89,0.00,,,0.00,Wunderground v.1.15,2013-07-27 02:49:00,
2013-07-26 21:54:00,70.2,66.8,29.95,West,279,7.0,7.0,89,0.00,,,0.00,Wunderground v.1.15,2013-07-27 02:54:00,
2013-07-26 21:59:00,70.1,66.7,29.95,ENE,61,7.0,7.0,89,0.00,,,0.00,Wunderground v.1.15,2013-07-27 02:59:00,
2013-07-26 22:04:00,70.1,66.7,29.95,ENE,62,8.0,8.0,89,0.00,,,0.00,Wunderground v.1.15,2013-07-27 03:04:00,
2013-07-26 22:09:00,70.1,66.7,29.95,West,279,6.0,8.0,89,0.00,,,0.00,Wunderground v.1.15,2013-07-27 03:09:00,
2013-07-26 22:14:00,70.1,67.0,29.95,NE,55,5.0,7.0,90,0.00,,,0.00,Wunderground v.1.15,2013-07-27 03:14:00,
2013-07-26 22:19:00,70.1,67.0,29.95,NE,53,5.0,7.0,90,0.00,,,0.00,Wunderground v.1.15,2013-07-27 03:19:00,
2013-07-26 22:24:00,70.1,67.0,29.95,NE,42,6.0,6.0,90,0.00,,,0.00,Wunderground v.1.15,2013-07-27 03:24:00,
2013-07-26 22:29:00,70.1,67.0,29.95,NE,38,6.0,6.0,90,0.00,,,0.00,Wunderground v.1.15,2013-07-27 03:29:00,
2013-07-26 22:34:00,70.1,67.0,29.95,NNE,22,6.0,6.0,90,0.00,,,0.00,Wunderground v.1.15,2013-07-27 03:34:00,
2013-07-26 22:39:00,70.1,67.0,29.95,North,3,6.0,7.0,90,0.00,,,0.00,Wunderground v.1.15,2013-07-27 03:39:00,
2013-07-26 22:44:00,70.1,67.0,29.95,North,353,5.0,6.0,90,0.00,,,0.00,Wunderground v.1.15,2013-07-27 03:44:00,
2013-07-26 22:49:00,70.2,67.1,29.95,NNW,345,4.0,6.0,90,0.00,,,0.00,Wunderground v.1.15,2013-07-27 03:49:00,
2013-07-26 22:54:00,70.2,67.4,29.95,NNW,346,3.0,7.0,91,0.00,,,0.00,Wunderground v.1.15,2013-07-27 03:54:00,
2013-07-26 22:59:00,70.2,67.4,29.95,North,355,6.0,7.0,91,0.00,,,0.00,Wunderground v.1.15,2013-07-27 03:59:00,
2013-07-26 23:01:00,70.1,67.3,29.95,North,358,7.0,7.0,91,0.00,,,0.00,Wunderground v.1.15,2013-07-27 04:01:00,
2013-07-26 23:02:00,70.1,67.3,29.95,North,1,7.0,7.0,91,0.00,,,0.00,Wunderground v.1.15,2013-07-27 04:02:00,
2013-07-26 23:07:00,70.0,67.3,29.95,North,359,9.0,9.0,91,0.00,,,0.00,Wunderground v.1.15,2013-07-27 04:07:00,
2013-07-26 23:12:00,70.0,67.3,29.95,North,356,9.0,10.0,91,0.00,,,0.00,Wunderground v.1.15,2013-07-27 04:12:00,
2013-07-26 23:17:00,69.9,66.8,29.94,North,5,7.0,10.0,90,0.00,,,0.00,Wunderground v.1.15,2013-07-27 04:17:00,
2013-07-26 23:22:00,69.8,67.1,29.94,NNE,17,9.0,9.0,91,0.00,,,0.00,Wunderground v.1.15,2013-07-27 04:22:00,
2013-07-26 23:27:00,69.7,67.0,29.94,NNE,25,10.0,10.0,91,0.00,,,0.00,Wunderground v.1.15,2013-07-27 04:27:00,
2013-07-26 23:32:00,69.6,66.9,29.94,NE,34,10.0,11.0,91,0.00,,,0.00,Wunderground v.1.15,2013-07-27 04:32:00,
2013-07-26 23:37:00,69.6,66.9,29.94,NE,36,10.0,11.0,91,0.00,,,0.00,Wunderground v.1.15,2013-07-27 04:37:00,
2013-07-26 23:42:00,69.5,67.1,29.94,NE,35,9.0,10.0,92,0.00,,,0.01,Wunderground v.1.15,2013-07-27 04:42:00,
2013-07-26 23:47:00,69.5,67.1,29.94,NE,37,10.0,11.0,92,0.00,,,0.01,Wunderground v.1.15,2013-07-27 04:47:00,
2013-07-26 23:52:00,69.5,67.1,29.95,NE,40,9.0,9.0,92,0.00,,,0.01,Wunderground v.1.15,2013-07-27 04:52:00,
2013-07-26 23:57:00,69.4,67.0,29.95,NE,44,9.0,10.0,92,0.00,,,0.01,Wunderground v.1.15,2013-07-27 04:57:00,